Regional Weather Roundup
Issued by NWS

Home | Current Version | Previous Version | Text Only | Print | Product List | Glossary On
Versions: 1 2 3 4 5 6 7 8 9 10 11 12 13 14 15 16 17 18 19 20 21 22 23 24 25 26 27 28 29 30 31 32 33 34 35 36 37 38 39 40 41 42 43 44 45 46 47 48 49 50
041
ASUS43 KBIS 192102
RWRND

NORTH DAKOTA REGIONAL WEATHER ROUNDUP
NATIONAL WEATHER SERVICE BISMARCK ND
400 PM CDT THU OCT 19 2017

NOTE: "FAIR" INDICATES FEW OR NO CLOUDS BELOW 12,000 FEET WITH NO
SIGNIFICANT WEATHER AND/OR OBSTRUCTIONS TO VISIBILITY.


NDZ001>003-009>011-017-192200-
NORTHWEST NORTH DAKOTA

CITY           SKY/WX    TMP DP  RH WIND       PRES   REMARKS
WILLISTON      SUNNY     78  34  20 SW7       29.65F
MINOT          SUNNY     80  32  17 SW12      29.66F
MINOT AFB      SUNNY     78  35  21 SW12      29.64F
$$

NDZ018>021-031>035-040>046-192200-
SOUTHWEST NORTH DAKOTA

CITY           SKY/WX    TMP DP  RH WIND       PRES   REMARKS
BISMARCK       SUNNY     78  39  24 SE13      29.71F
DICKINSON      SUNNY     80  27  14 SW7       29.71F
GARRISON         N/A     77  34  21 SW9       29.69F
HETTINGER ARPT SUNNY     80  26  13 SW5       29.76F
$$

NDZ004>008-012>016-024-026-027-054-192200-
NORTHEAST NORTH DAKOTA

CITY           SKY/WX    TMP DP  RH WIND       PRES   REMARKS
GRAND FORKS    MOSUNNY   73  39  29 S15       29.73F
GRND FRKS AFB  CLOUDY    71  37  29 S12       29.73F
DEVILS LAKE    CLOUDY    72  38  29 S10       29.71F
$$

NDZ022-023-025-028>030-036>039-047>053-192200-
SOUTHEAST NORTH DAKOTA

CITY           SKY/WX    TMP DP  RH WIND       PRES   REMARKS
FARGO          SUNNY     74  40  29 S17       29.77F
JAMESTOWN      SUNNY     74  39  28 S12       29.74S
$$





USA.gov is the U.S. government's official web portal to all federal, state and local government web resources and services.